Location: Unspecified
(38.0989°N, 0.6729°W)
Time: 14:53:08
(UTC+02:00)

N. Korean satellite - Visible Passes

Search period start: 20 September 2017 00:00
Search period end: 30 September 2017 00:00
Orbit: 461 x 515 km, 97.2° (Epoch: 19 September)

Date Brightness Start Highest point End Pass type
(mag) Time Alt. Az. Time Alt. Az. Time Alt. Az.
20 Sep 8.4 20:37:30 10° SSW 20:41:00 38° W 20:44:32 10° NNW visible
23 Sep 9.7 21:02:18 10° SW 21:05:01 19° W 21:07:43 10° NW visible
24 Sep 8.4 20:38:13 10° SSW 20:41:42 36° W 20:45:11 10° NNW visible
27 Sep 9.7 21:03:02 10° SW 21:05:40 18° W 21:08:17 10° NW visible
28 Sep 8.5 20:38:54 10° SSW 20:42:20 35° W 20:45:46 10° NNW visible
29 Sep 6.9 20:15:22 10° S 20:19:05 75° WSW 20:22:47 10° NNW visible
